Temp
63 57 54 57 59 60 58 57 57 62 68 62 61 62 66 70 72 73 75 77 79 80 87 89 90 91 92 91 89 86 79 78 79 74 71 73 68 71 69 69 68 68 68 68
60 52 62 64 62 57 55 53 54 61 65 63 61 61 67 69 70 74 75 76 78 80 84 86 88 90 88 87 86 85 80 79 76 75 77 76 74 74 74 73 69 68 65 65
55 60 64 61 59 55 54 52 53 55 60 63 61 59 63 71 75 75 77 79 79 80 81 84 86 88 86 85 84 84 81 80 76 77 79 77 75 73 70 68 70 73 71 71
59 64 60 56 55 58 50 61 57 54 51 47 64 47 61 68 70 72 74 75 77 79 82 84 85 86 86 84 84 84 82 80 78 79 78 74 72 70 72 73 75 73 72 71
54 57 55 54 55 59 53 61 55 55 52 51 52 51 58 68 64 67 70 73 76 80 82 82 84 87 90 86 83 82 80 79 78 78 77 75 74 76 76 74 69 69 68 67
58 66 60 58 60 59 61 55 54 53 52 42 50 51 55 62 61 62 67 69 72 76 79 82 85 86 89 88 83 80 77 78 75 77 76 75 74 74 72 69 66 65 65 63
55 56 62 61 54 59 56 49 39 38 37 37 56 52 57 62 64 63 63 67 69 69 70 75 80 83 85 85 81 77 73 73 73 75 76 75 75 73 72 69 67 62 61 60
48 44 58 62 55 52 51 50 40 32 36 41 53 45 55 66 63 66 68 68 69 68 67 68 74 80 83 84 80 71 68 68 69 74 77 75 74 74 73 70 65 63 62 62
44 46 58 58 61 57 52 45 56 44 47 41 48 57 63 65 61 64 66 66 65 65 63 62 65 79 80 80 67 65 65 66 68 76 76 73 73 71 71 70 68 65 66 64
48 42 55 57 59 59 56 56 41 43 32 33 46 51 51 51 56 62 63 62 62 63 59 55 61 65 77 70 66 63 65 66 69 76 74 71 71 70 71 71 69 67 67 65
48 45 48 56 50 48 49 45 46 47 45 37 37 44 56 55 59 60 61 61 60 58 55 49 51 53 66 67 65 62 64 65 67 73 70 69 68 68 69 67 67 69 69 69
41 37 40 46 57 58 52 49 49 39 41 46 42 45 60 61 61 61 60 60 58 56 52 46 46 48 60 63 63 63 63 65 66 70 67 67 67 67 66 66 68 69 69 68
39 36 34 43 47 54 49 50 50 48 46 39 37 43 56 64 64 64 60 59 57 53 49 44 43 43 45 52 61 61 62 63 64 66 65 64 63 63 64 65 65 66 65 66
37 35 36 37 42 47 46 50 50 47 38 42 44 50 57 60 61 63 59 57 55 50 45 41 40 40 41 44 47 49 58 62 62 63 63 62 62 63 63 64 64 66 66 64
36 30 36 45 46 46 45 46 48 45 47 42 49 50 57 60 60 59 57 53 50 45 42 38 37 37 38 40 42 44 46 51 56 54 53 53 54 59 60 58 55 61 59 60
38 32 31 39 49 49 45 50 50 50 50 50 52 52 56 56 60 53 49 47 44 41 38 37 36 36 36 37 38 40 42 44 48 48 48 49 49 50 49 48 48 47 46 46
32 32 32 33 41 44 38 47 49 50 53 51 42 48 52 43 38 37 40 39 36 35 35 35 34 34 35 35 37 36 39 41 43 44 44 44 45 44 44 43 42 41 40 41
34 31 32 33 37 26 43 55 54 51 50 51 50 52 44 38 35 34 34 34 33 32 34 34 34 34 34 35 36 36 38 38 38 39 41 42 41 41 41 40 38 37 37 36
41 34 35 33 28 39 46 48 48 46 42 48 47 49 46 40 39 32 34 33 32 32 32 33 33 33 33 35 34 34 34 35 36 35 37 39 39 38 37 36 36 36 35 35
45 44 37 39 31 28 38 51 55 54 39 47 47 44 45 44 35 30 33 34 32 32 32 32 32 33 33 33 34 33 32 32 32 32 34 36 37 37 35 34 35 36 36 35
38 40 36 37 35 41 47 52 55 37 34 43 44 39 34 31 31 31 32 32 32 32 32 34 32 31 32 33 34 32 32 32 32 33 34 36 37 36 35 36 38 38 38 37
39 37 37 40 35 30 47 50 40 39 44 41 39 36 31 30 30 31 31 32 33 32 33 34 33 32 32 32 32 32 32 34 35 34 36 36 37 39 38 39 39 39 38 37
35 39 37 38 33 41 43 40 42 41 35 37 36 36 35 31 30 30 30 31 32 32 32 35 34 33 34 34 34 30 31 35 36 36 36 36 35 36 37 37 37 38 39 37
43 48 41 41 36 37 40 43 41 38 35 37 38 37 34 30 30 30 30 31 32 32 32 33 32 30 31 34 35 35 35 35 33 32 32 32 32 33 34 33 31 30 33 33
39 45 40 34 35 39 40 39 38 37 36 35 34 33 32 31 30 31 31 31 32 34 35 34 33 32 31 32 32 35 39 39 35 35 34 32 30 29 27 27 29 29 28 29
37 32 32 30 36 37 34 37 37 33 32 35 33 30 31 31 28 29 28 29 30 29 30 31 31 31 30 30 30 30 33 35 33 32 33 33 33 32 31 28 25 28 28 28
MSLP
1006.30 1006.01 1004.65 1004.58 1004.51 1004.46 1004.05 1003.40 1002.04 1001.47 1001.10 1001.35 1000.42 999.45 999.03 998.60 997.64 996.96 996.53 996.36 996.28 996.32 996.07 996.23 996.29 996.42 996.71 997.77 998.59 999.89 1001.60 1002.85 1003.62 1004.45 1005.56 1005.93 1006.61 1007.34 1008.10 1008.56 1008.75 1009.19 1009.59 1010.00
1005.37 1004.46 1004.17 1004.10 1004.32 1004.58 1004.56 1003.74 1002.70 1002.01 1001.44 1001.07 1000.08 998.76 998.09 997.28 996.59 995.93 995.57 995.53 995.53 995.69 995.57 995.73 995.86 995.88 996.83 997.81 998.54 999.60 1001.12 1002.22 1003.29 1004.36 1004.59 1005.33 1005.89 1006.64 1007.33 1007.89 1008.29 1008.89 1009.49 1009.90
1004.00 1003.30 1003.60 1004.01 1003.94 1004.23 1004.12 1003.73 1002.96 1002.18 1001.61 1000.89 999.77 997.73 996.49 995.41 994.90 994.98 994.80 994.80 995.15 995.05 995.12 995.17 995.39 995.51 996.49 997.60 998.38 999.27 1000.46 1001.65 1002.97 1003.59 1003.98 1004.83 1005.68 1006.50 1007.13 1007.56 1007.77 1007.97 1008.37 1008.89
1003.46 1003.37 1003.57 1004.32 1003.92 1003.87 1003.35 1003.29 1003.04 1002.97 1002.41 1000.47 998.81 997.18 996.01 995.01 994.40 994.69 994.59 994.76 994.70 994.89 994.96 994.97 994.99 995.11 995.64 997.12 998.05 999.10 1000.01 1001.21 1002.39 1002.98 1003.39 1003.96 1004.88 1005.59 1006.23 1006.53 1006.83 1007.47 1008.12 1008.46
1003.35 1003.31 1003.80 1003.53 1003.78 1004.04 1003.65 1003.35 1003.66 1003.23 1002.27 1001.14 999.73 998.04 995.80 994.33 994.69 994.87 995.04 995.27 995.00 994.60 994.59 994.79 994.78 994.80 994.91 996.00 997.52 998.70 999.85 1000.87 1001.79 1002.56 1003.05 1003.72 1004.38 1004.81 1005.46 1006.12 1006.93 1007.62 1008.26 1008.65
1003.61 1003.26 1003.75 1003.60 1003.64 1003.90 1003.87 1004.01 1003.97 1003.53 1002.28 1000.51 998.98 998.09 995.33 994.13 995.42 996.23 996.37 996.54 996.41 995.77 995.31 994.79 994.46 994.44 994.29 994.82 996.89 998.63 999.83 1000.45 1001.79 1002.39 1002.84 1003.31 1003.89 1004.43 1005.13 1006.05 1006.97 1007.70 1008.32 1008.65
1003.18 1002.85 1003.04 1003.69 1003.74 1003.64 1003.80 1003.96 1003.10 1002.25 1001.44 999.94 997.79 996.97 995.45 995.84 996.44 997.09 997.39 997.52 997.69 997.88 997.53 996.54 995.58 994.97 994.64 994.71 996.80 998.61 999.84 1000.45 1001.56 1002.29 1002.48 1003.15 1003.66 1004.48 1004.83 1005.82 1006.84 1007.66 1008.22 1008.63
1002.61 1001.46 1001.36 1002.21 1003.00 1002.55 1003.08 1003.07 1002.61 1001.29 1000.29 999.30 997.90 996.50 995.73 996.28 997.50 998.05 998.26 998.51 998.66 999.17 999.56 998.80 997.31 995.69 995.02 995.33 997.08 999.14 1000.40 1001.02 1001.78 1002.18 1002.19 1002.98 1003.59 1004.27 1004.69 1005.63 1006.83 1007.34 1007.91 1008.41
1003.98 1002.32 1002.45 1002.47 1002.41 1003.09 1002.61 1002.40 1002.33 1002.11 1001.17 999.90 998.08 995.97 996.00 996.74 998.06 998.37 998.31 998.86 999.36 1000.00 1000.10 999.94 998.60 996.16 996.18 996.63 998.83 1000.06 1001.05 1001.49 1002.00 1001.63 1002.07 1003.02 1003.56 1004.22 1004.75 1005.52 1006.47 1007.11 1007.58 1008.18
1006.25 1004.17 1002.74 1002.40 1002.81 1002.47 1002.09 1002.67 1002.74 1002.65 1001.32 999.52 997.27 995.87 995.62 997.77 998.16 998.31 998.60 999.50 1000.23 1000.81 1001.39 1001.34 1000.52 999.27 997.73 998.51 999.89 1000.85 1001.48 1001.63 1002.06 1001.55 1002.43 1003.38 1003.67 1004.35 1004.79 1005.43 1005.98 1006.65 1007.14 1007.75
1008.61 1006.58 1003.71 1002.41 1002.43 1001.82 1002.48 1002.67 1003.01 1002.41 1001.55 999.86 998.05 997.02 997.40 998.04 998.28 998.63 999.37 1000.31 1001.22 1002.07 1002.92 1003.20 1002.74 1001.54 999.73 999.98 1000.63 1001.30 1001.74 1001.91 1002.25 1002.08 1003.01 1003.56 1003.97 1004.50 1005.04 1005.64 1006.14 1006.44 1006.79 1007.30
1010.72 1009.15 1004.88 1002.83 1001.79 1001.85 1002.41 1002.02 1002.13 1001.96 1001.06 1000.36 999.84 998.40 998.27 998.22 998.61 999.13 1000.07 1001.09 1002.40 1003.34 1004.24 1004.60 1004.71 1003.92 1001.85 1001.45 1001.68 1001.62 1001.73 1002.30 1002.70 1002.80 1003.51 1003.98 1004.26 1004.61 1005.21 1005.66 1006.14 1006.55 1006.83 1007.39
1011.83 1009.57 1006.28 1002.94 1002.68 1001.99 1001.85 1002.02 1002.15 1002.18 1001.94 1000.85 999.94 999.09 999.60 998.40 998.29 999.14 1000.52 1001.98 1003.23 1004.38 1005.33 1005.72 1006.16 1005.75 1005.12 1003.99 1002.70 1002.48 1002.79 1003.00 1003.26 1003.41 1004.01 1004.41 1004.69 1005.18 1005.55 1005.94 1006.55 1006.84 1007.16 1007.56
1012.76 1010.79 1008.37 1004.34 1002.51 1002.02 1001.15 1001.17 1001.68 1001.84 1001.57 1000.57 999.95 998.96 998.42 998.69 999.03 999.75 1001.44 1003.06 1004.35 1005.65 1006.41 1007.22 1007.71 1007.63 1007.21 1006.43 1005.10 1004.33 1003.75 1003.55 1003.87 1004.23 1004.59 1004.99 1005.22 1005.47 1005.89 1006.47 1006.73 1007.06 1007.51 1008.03
1012.94 1010.91 1009.03 1005.62 1003.68 1002.61 1001.52 1001.52 1001.28 1001.45 1001.30 1000.88 1000.11 999.90 999.78 999.60 1000.19 1001.28 1003.22 1004.78 1006.01 1007.21 1007.75 1008.60 1008.94 1009.13 1008.82 1008.33 1006.90 1006.43 1005.79 1005.12 1004.87 1005.22 1005.87 1006.34 1006.36 1006.05 1006.49 1007.25 1007.81 1007.76 1008.45 1008.74
1012.57 1010.34 1008.91 1005.71 1003.45 1002.39 1001.65 1001.28 1001.20 1001.15 1001.27 1001.24 1001.14 1000.80 1001.89 1002.56 1002.53 1004.29 1005.81 1006.96 1008.02 1009.04 1009.58 1010.15 1010.27 1010.50 1010.22 1009.83 1008.86 1008.32 1007.86 1007.14 1006.69 1006.61 1007.25 1007.68 1007.78 1007.80 1008.21 1008.71 1009.20 1009.50 1010.09 1010.53
1012.42 1010.75 1008.06 1004.92 1004.39 1003.11 1002.31 1001.42 1001.25 1001.51 1001.60 1001.99 1002.73 1003.70 1004.52 1005.78 1007.34 1008.50 1008.98 1009.74 1010.50 1011.08 1011.42 1011.58 1011.66 1011.64 1011.61 1011.28 1010.88 1010.03 1009.50 1009.13 1008.33 1008.18 1008.64 1008.88 1009.11 1009.30 1009.73 1010.17 1010.51 1010.82 1011.39 1011.78
1010.84 1010.03 1008.18 1005.96 1005.04 1003.94 1003.41 1002.23 1002.32 1002.24 1003.31 1004.09 1004.61 1005.24 1006.89 1008.49 1009.99 1010.93 1011.60 1011.96 1012.52 1012.77 1012.95 1013.11 1012.87 1012.70 1012.80 1012.65 1012.14 1011.45 1010.81 1010.73 1009.99 1009.76 1010.11 1010.39 1010.27 1010.64 1011.09 1011.14 1011.94 1012.45 1012.84 1013.26
1009.85 1009.01 1006.91 1005.74 1005.46 1004.34 1003.57 1003.58 1003.57 1003.49 1005.04 1006.08 1006.48 1007.21 1008.07 1009.60 1010.68 1012.39 1013.36 1013.77 1014.13 1014.27 1014.62 1014.56 1014.29 1013.86 1013.93 1013.80 1013.63 1012.49 1012.28 1012.06 1011.48 1011.75 1011.83 1011.73 1011.75 1011.84 1012.11 1012.28 1013.29 1013.84 1014.00 1014.72
1008.06 1007.69 1007.06 1005.40 1004.82 1004.51 1005.09 1004.65 1004.85 1004.82 1006.01 1007.59 1008.35 1009.02 1009.53 1010.06 1011.43 1013.42 1014.30 1014.73 1015.01 1015.24 1015.45 1015.32 1015.40 1014.96 1014.67 1014.78 1014.84 1013.17 1014.02 1013.08 1013.02 1013.28 1013.81 1013.28 1013.09 1013.03 1012.78 1012.93 1014.65 1014.74 1014.84 1015.50
1006.79 1006.63 1006.34 1005.83 1005.48 1005.41 1006.32 1005.98 1005.82 1006.39 1008.96 1009.58 1010.17 1011.13 1011.87 1012.21 1013.20 1014.47 1015.22 1015.61 1015.89 1016.06 1016.18 1016.45 1016.20 1015.82 1015.70 1015.40 1015.84 1015.13 1014.99 1014.63 1014.78 1014.41 1014.94 1014.54 1013.97 1014.17 1013.77 1013.75 1015.39 1015.85 1015.20 1015.42
1005.91 1006.05 1006.02 1005.95 1006.64 1007.75 1008.45 1007.19 1008.16 1010.60 1010.79 1011.41 1012.12 1013.09 1013.89 1014.59 1015.16 1015.64 1016.11 1016.45 1016.60 1016.73 1016.78 1016.85 1016.64 1016.54 1016.45 1016.08 1015.80 1015.24 1015.74 1016.40 1016.16 1015.27 1015.87 1014.74 1014.85 1014.39 1014.95 1014.72 1015.64 1016.07 1016.11 1016.52
1007.19 1007.53 1007.28 1008.11 1009.42 1010.30 1010.87 1011.37 1012.10 1012.59 1013.03 1013.29 1013.72 1014.52 1015.19 1015.79 1016.40 1016.79 1017.07 1017.39 1017.55 1017.59 1017.57 1017.34 1017.23 1017.53 1017.63 1017.30 1017.26 1016.72 1017.32 1017.62 1016.75 1016.62 1017.01 1015.73 1016.91 1016.27 1016.64 1016.31 1016.81 1017.51 1017.81 1018.02
1008.26 1008.48 1008.71 1009.45 1011.28 1011.83 1012.32 1012.63 1013.40 1014.07 1014.52 1014.92 1015.13 1015.71 1016.44 1016.87 1017.40 1017.80 1018.08 1018.20 1018.29 1018.22 1017.92 1017.92 1018.07 1018.17 1018.22 1018.22 1018.12 1018.11 1018.51 1017.52 1018.76 1018.09 1017.75 1018.16 1018.90 1018.21 1018.29 1018.70 1019.23 1019.41 1019.29 1019.48
1010.57 1010.01 1010.62 1011.81 1012.80 1013.01 1013.54 1014.11 1014.63 1015.33 1015.71 1016.22 1016.64 1017.01 1017.54 1017.81 1018.25 1018.63 1019.00 1019.11 1019.16 1018.82 1018.65 1018.80 1018.99 1019.24 1019.48 1019.56 1019.39 1019.38 1018.66 1018.85 1019.35 1018.82 1019.28 1019.09 1020.09 1019.64 1020.32 1021.20 1020.82 1020.95 1021.57 1021.49
1013.06 1013.55 1013.25 1013.30 1014.02 1014.11 1015.18 1015.41 1015.94 1016.43 1016.81 1017.19 1017.55 1018.06 1018.57 1018.77 1019.23 1019.76 1020.03 1020.16 1020.11 1019.96 1019.88 1019.77 1020.13 1020.53 1020.77 1020.89 1020.94 1021.04 1020.57 1020.14 1020.31 1019.85 1019.96 1020.24 1020.42 1020.82 1021.37 1021.79 1022.20 1022.90 1023.10 1022.93
Wind_Speed
16 14 17 19 18 21 18 22 21 20 15 16 22 22 21 21 23 23 22 22 21 19 17 16 19 21 12 14 17 20 19 18 13 9 10 9 7 8 7 7 8 8 7 9
14 17 19 16 16 17 19 22 23 21 19 15 19 21 20 22 23 24 23 20 20 18 19 19 18 19 13 15 17 19 20 20 14 12 11 9 8 7 8 8 9 10 9 9
19 9 4 16 15 16 18 19 21 20 18 19 22 25 24 17 17 16 16 20 20 20 20 17 18 20 16 16 17 19 20 19 16 16 10 9 8 6 7 8 9 12 14 14
18 15 14 11 15 15 18 17 16 15 16 12 12 14 19 17 9 8 7 11 13 18 20 17 18 20 19 17 17 18 19 19 18 17 13 14 11 9 9 8 8 7 6 9
14 12 12 20 20 17 16 13 10 14 15 16 17 13 15 12 8 5 9 11 13 13 15 16 20 19 20 19 16 17 18 19 18 17 14 12 11 8 8 7 5 9 6 5
17 15 9 12 11 13 12 10 13 15 14 14 19 16 13 3 8 6 7 7 13 14 13 10 10 14 17 19 17 16 19 19 18 17 16 15 13 10 8 7 7 6 4 3
17 22 22 15 15 11 14 12 8 9 8 10 5 7 12 9 7 7 9 11 9 11 14 15 9 14 16 17 18 17 18 16 19 18 16 14 13 11 10 10 8 7 5 4
15 13 18 18 21 12 17 16 8 10 8 10 0 9 5 13 12 6 7 7 10 9 10 12 18 11 11 12 17 16 16 14 16 19 16 13 12 8 7 9 7 6 6 6
8 9 4 5 14 19 19 15 17 17 20 13 10 13 16 12 8 5 6 12 13 12 13 15 19 7 7 11 15 14 14 14 18 18 14 13 11 10 9 11 11 8 8 8
11 16 15 10 9 16 19 3 8 8 7 11 14 18 10 8 5 6 13 12 13 14 15 16 19 22 6 15 13 10 11 14 17 15 12 11 11 10 10 10 10 9 10 10
17 14 13 11 12 13 12 11 9 6 9 6 7 2 13 8 8 10 13 12 13 13 13 14 17 20 11 11 11 11 12 12 12 13 11 12 9 10 9 8 8 8 7 8
6 9 16 20 8 8 10 13 15 8 12 6 5 2 5 8 5 6 7 9 11 11 12 13 16 17 12 5 8 9 11 13 9 12 12 12 9 8 9 7 8 7 7 8
7 6 9 19 10 14 14 15 11 10 6 9 5 1 8 5 7 7 6 8 9 10 13 14 15 15 16 13 4 7 7 11 8 7 9 9 10 7 9 7 3 7 6 5
2 7 15 16 9 11 20 16 13 12 6 6 7 13 2 12 11 13 8 8 10 11 13 12 13 14 14 14 12 13 2 7 7 8 9 7 7 8 8 7 3 6 6 5
4 9 21 26 11 11 6 13 13 13 11 7 10 13 14 11 14 12 9 8 10 11 14 13 13 12 14 14 13 13 12 12 9 12 11 10 10 8 8 9 11 6 8 5
7 8 18 19 7 3 4 7 6 6 8 10 12 10 20 21 14 14 12 10 10 11 12 12 12 13 13 14 13 13 12 12 10 13 12 11 10 11 12 12 12 12 12 12
7 5 12 7 1 3 5 10 4 0 4 11 9 12 13 14 15 16 12 12 11 11 11 11 12 12 12 12 11 12 12 11 11 13 12 11 11 12 12 12 13 13 13 13
11 15 10 5 3 5 2 3 7 4 11 8 8 12 8 8 10 12 13 11 12 11 11 9 9 12 11 11 11 10 11 12 12 14 13 11 12 13 12 14 14 13 12 13
15 13 4 4 5 1 10 7 6 6 8 14 12 14 7 9 9 10 10 12 12 10 10 9 7 9 9 12 9 11 12 10 13 14 12 11 11 13 13 15 13 12 13 12
16 15 8 1 2 5 4 9 6 6 5 13 14 14 15 2 5 4 8 10 11 11 10 10 12 8 9 10 9 13 9 13 15 12 10 11 11 13 13 16 10 11 13 12
10 8 9 3 1 6 12 12 11 8 7 12 13 12 13 7 7 11 9 11 10 9 9 8 8 10 12 9 7 13 13 14 10 11 10 10 12 11 11 15 9 8 12 13
7 6 5 3 3 3 17 5 8 8 10 11 11 10 11 11 11 11 10 10 10 10 10 10 11 12 9 9 10 14 14 10 12 13 9 14 14 12 11 14 11 12 10 13
2 6 6 9 6 8 11 10 8 9 7 8 8 8 10 10 10 10 9 9 9 10 9 10 12 13 13 13 12 12 11 11 12 12 13 16 15 15 13 13 11 9 9 9
5 9 2 3 6 9 9 9 11 10 9 8 8 9 10 11 9 9 8 7 7 8 11 12 13 14 14 13 12 13 9 12 10 13 15 14 13 14 14 11 10 10 8 7
6 8 7 6 6 4 11 11 10 9 10 10 11 11 9 10 10 9 8 9 8 10 12 12 13 13 14 13 14 14 12 11 9 12 12 13 10 13 14 13 11 11 13 12
6 6 5 4 5 4 5 8 9 10 8 7 10 12 11 11 11 10 9 9 9 10 11 12 13 14 13 13 13 12 11 10 8 10 9 8 8 9 9 10 12 23 22 22
Wind_Direction
192 222 230 235 224 254 270 279 283 282 289 278 273 271 270 269 257 259 257 253 248 251 255 237 231 228 208 211 186 183 178 189 186 165 176 184 178 195 191 194 180 187 195 196
227 232 247 242 238 241 254 264 266 275 278 263 272 272 275 266 261 258 257 257 254 246 244 228 235 224 188 201 191 182 181 188 170 185 179 184 194 193 195 191 188 198 188 189
239 249 259 240 241 245 249 258 273 283 294 287 273 273 263 240 245 252 261 252 252 247 242 235 227 227 177 206 190 191 183 190 177 195 172 171 180 184 195 192 204 208 202 200
256 246 244 248 252 238 260 263 254 272 277 275 321 296 299 294 262 267 254 248 252 244 245 238 236 229 187 199 191 195 183 188 182 190 177 179 181 186 201 206 207 202 210 223
251 236 253 250 240 255 264 280 271 266 269 278 273 265 272 219 227 40 354 0 320 234 238 233 234 238 232 182 192 193 181 184 178 189 182 177 189 192 183 189 180 196 190 222
254 264 236 267 266 242 243 265 251 261 260 262 263 244 266 203 65 19 6 360 349 353 337 299 293 279 231 178 179 177 180 186 175 184 186 187 186 184 161 173 183 174 184 167
235 233 240 223 250 216 215 230 250 219 220 247 284 210 238 104 77 33 15 12 19 357 349 327 291 262 249 165 174 173 171 177 183 182 183 183 179 186 186 175 179 168 165 160
282 258 209 205 228 210 207 214 233 256 261 297 36 216 180 102 76 36 26 14 10 7 354 332 329 283 236 178 179 158 169 174 173 189 177 175 178 189 182 172 174 172 172 160
309 258 262 197 220 230 233 229 244 266 279 276 253 284 161 113 83 18 26 18 13 7 6 345 337 289 224 175 136 158 169 177 180 187 170 167 183 173 184 166 165 171 171 175
292 280 226 171 216 230 240 289 208 215 244 234 242 227 144 112 44 358 31 17 13 14 10 357 346 332 230 121 143 157 178 181 186 174 162 168 176 176 178 175 177 177 174 170
304 265 259 204 207 199 202 218 223 255 262 284 293 104 98 103 27 11 24 22 23 16 16 4 349 341 68 124 147 163 184 170 190 161 169 168 175 157 164 163 181 187 180 176
344 299 259 226 199 268 258 238 228 231 215 241 292 3 84 42 23 32 21 21 21 29 25 21 3 353 357 101 162 182 153 160 179 177 173 168 166 151 153 171 158 178 180 161
7 310 288 247 174 193 235 224 239 239 252 242 261 105 343 319 4 81 19 18 34 30 36 30 13 6 359 358 105 110 139 157 170 156 168 172 144 158 154 162 188 168 150 159
318 269 263 265 278 301 214 224 217 229 239 275 261 301 303 355 348 351 69 27 33 36 47 39 22 10 4 360 16 22 111 143 149 147 146 149 151 156 152 144 165 133 135 132
258 270 293 256 230 245 191 254 212 216 238 264 301 325 322 355 345 45 66 35 31 31 46 37 31 14 11 358 19 21 27 32 81 86 78 65 55 71 90 73 46 81 63 42
284 277 299 230 219 241 182 194 230 264 285 282 274 274 15 17 23 52 47 41 37 32 43 38 40 26 18 7 14 25 24 37 54 74 73 64 62 67 70 69 70 67 68 60
264 287 292 134 317 253 256 225 190 160 18 5 6 354 26 40 37 26 43 47 43 37 36 40 42 36 22 16 14 29 35 34 56 66 64 65 63 65 65 67 65 61 58 60
251 264 260 88 218 187 112 101 73 327 73 37 2 19 54 92 86 52 37 43 41 30 22 22 41 42 25 17 22 38 40 43 50 60 61 59 71 70 69 70 63 63 64 60
219 261 284 133 177 109 129 67 33 339 77 22 2 2 41 137 123 66 52 56 51 40 32 20 20 51 35 28 10 40 39 46 49 48 51 60 68 81 75 72 70 71 73 64
214 234 280 266 100 137 72 36 350 295 182 19 5 360 344 299 242 97 79 77 69 57 42 37 27 17 52 39 22 51 34 48 47 37 42 57 68 74 86 82 72 80 78 79
212 223 245 207 268 94 9 335 306 236 16 10 18 19 22 52 48 101 93 79 70 67 59 46 46 51 35 38 45 64 46 49 48 56 45 49 63 69 70 80 83 93 87 78
206 210 210 216 215 175 355 52 22 354 1 20 41 60 83 82 79 78 74 77 76 69 73 67 59 50 46 44 34 54 55 51 64 64 57 61 59 66 58 72 73 68 73 76
78 22 347 24 53 66 44 57 41 20 42 32 74 88 99 93 82 76 72 64 67 70 66 64 67 65 57 53 55 62 56 48 57 66 64 62 53 51 48 56 58 68 66 73
81 13 15 216 63 60 45 50 52 52 59 58 78 97 97 95 82 82 77 74 76 77 72 68 67 60 54 45 57 68 68 75 73 72 68 59 58 66 60 58 53 42 45 56
1 328 337 91 103 115 55 44 48 64 75 76 68 74 85 89 77 71 74 71 67 70 74 75 71 66 63 53 42 29 43 71 73 79 83 85 79 72 68 53 54 61 51 44
13 7 351 25 356 335 53 50 59 62 59 83 93 80 65 77 80 75 65 61 66 67 67 69 72 74 65 59 55 39 32 46 62 69 66 67 75 81 87 83 73 58 62 59